Regional Weather Roundup
Issued by NWS San Diego, CA

Home | Current Version | Previous Version | Text Only | Print | Product List | Glossary On
Versions: 1 2 3 4 5 6 7 8 9 10 11 12 13 14 15 16 17 18 19 20 21 22 23 24 25 26 27 28 29 30 31 32 33 34 35 36 37 38 39 40 41 42 43 44 45 46 47 48 49 50
800
ASUS46 KSGX 261211
RWRSGX

SAN DIEGO HOURLY WEATHER ROUNDUP
NATIONAL WEATHER SERVICE SAN DIEGO CA
400 AM PST SUN FEB 26 2017

NOTE: "FAIR" INDICATES FEW OR NO CLOUDS BELOW 12,000 FEET WITH NO
SIGNIFICANT WEATHER AND/OR OBSTRUCTIONS TO VISIBILITY.

CAZ042-043-060-061-PZZ750-775-261300-

GREATER SAN DIEGO AREA

CITY           SKY/WX    TMP DP  RH WIND       PRES   REMARKS
SAN DIEGO AP   CLOUDY    54  44  69 CALM      30.02F
POINT LOMA       N/A     52  45  76 SW6         N/A
NATIONAL CITY    N/A     53  48  83 CALM      30.02S
CHULA VISTA      N/A     51  48  88 CALM      29.93F
IMPERIAL BEACH CLOUDY   N/A N/A N/A CALM      30.02S
BROWN FIELD    CLOUDY    49  47  93 S5        30.00F
MIRAMAR MCAS   MOCLDY    54  46  74 S3        29.99F
MONTGOMERY FLD CLOUDY    51  44  77 S3        30.00S

$$

NORTH SAN DIEGO COUNTY

CITY           SKY/WX    TMP DP  RH WIND       PRES   REMARKS
CAMP PENDLETON CLOUDY    49  47  93 CALM      29.99S
OCEANSIDE AP   CLOUDY    53  44  71 SW6       29.98F
OCEANSIDE HBR    N/A     54  44  69 NW6       30.01F
VISTA            N/A     51  45  79 CALM      29.98F
CARLSBAD       CLOUDY    53  43  68 SW6       29.98F
DEL MAR          N/A     53  46  76 W2        30.02S
LA JOLLA SCRIP   N/A     54  45  72 SW5       30.00S
FALLBROOK        N/A     50  49  96 CALM      29.97F
ESCONDIDO        N/A     50  45  82 CALM      30.01F
SAN MARCOS       N/A     50  42  75 CALM      30.00F

$$

EAST SAN DIEGO COUNTY

CITY           SKY/WX    TMP DP  RH WIND       PRES   REMARKS
RAMONA         CLOUDY    47  45  93 SW3       29.98S
SANTEE LAKES     N/A     51  46  80 CALM      30.00F
LA MESA          N/A     49  45  87 CALM      29.94F
JAMUL            N/A     46  44  91 CALM      30.01F
DESCANSO N       N/A     38  36  94 CALM      29.94F
MT. LAGUNA OBS   N/A     28  27  96 W16       29.50F WCI  16
CAMPO            N/A     41  41 100 SW7       29.92F

$$

ORANGE COUNTY AND THE LOS ANGELES BASIN

CITY           SKY/WX    TMP DP  RH WIND       PRES   REMARKS
JOHN WAYNE AP  CLOUDY    53  44  71 CALM      29.99S
LAKE FOREST FR   N/A     48  41  77 CALM      29.88F
HUNTINGTON BCH   N/A     53  45  75 W3        30.00S
LOS ALAMITOS   DRIZZLE   50  45  81 NW8       29.99S
FULLERTON      CLOUDY    52  44  74 W3        29.98S
LONG BEACH     LGT RAIN  51  44  77 NW5       29.99S
L.A. AP        LGT RAIN  50  40  68 N6        30.00S
L.A. DOWNTOWN  LGT RAIN  51  38  60 CALM      29.99S

$$

THE INLAND EMPIRE

CITY           SKY/WX    TMP DP  RH WIND       PRES   REMARKS
CORONA         CLOUDY    50  44  80 W8        29.98S
CHINO          LGT RAIN  50  44  80 W9        29.99R
ONTARIO        LGT RAIN  47  43  86 W8        29.97S
SAN BERNARDINO CLOUDY    48  40  73 CALM      29.96F
RIVERSIDE AP   LGT RAIN  48  45  89 CALM      29.97F
MORENO VALLEY    N/A     46  45  97 SE5       28.06F
MARCH ARB      CLOUDY    46  46 100 S5        29.95S
HORSETHIEF CYN   N/A     47  40  78 CALM      29.98F
PERRIS           N/A     46  44  96 S3        30.00S
FRENCH VALLEY  CLOUDY    46  43  87 S8        29.96F
TEMECULA         N/A     49  46  89 SW5       30.03F

$$

SAN BERNARDINO AND RIVERSIDE COUNTY MOUNTAINS

CITY           SKY/WX    TMP DP  RH WIND       PRES   REMARKS
BIG BEAR AP    CLOUDY    32  16  51 W6        29.85S WCI  26
ANGELUS OAKS     N/A     28  25  87 CALM      29.90F
PINE COVE        N/A     29  28  97 N2        29.92F

$$

SOUTHERN DESERT INCLUDING THE COACHELLA VALLEY

CITY           SKY/WX    TMP DP  RH WIND       PRES   REMARKS
PALM SPRINGS   PTCLDY    51  40  65 SW5       29.88F
PALM DESERT      N/A     46  39  75 CALM        N/A
THERMAL        CLEAR     55  37  50 N13       29.87S
BLYTHE         PTCLDY    49  36  61 S7        29.85F
IMPERIAL AP    MOCLDY    56  39  53 W16G29    29.88S
EL CENTRO NAS  LGT RAIN  57  36  45 W22       29.90F
YUMA AZ        PTCLDY    55  33  43 NW9       29.88

$$

UPPER DESERT

CITY           SKY/WX    TMP DP  RH WIND       PRES   REMARKS
VICTORVILLE AP DRIZZLE   39  34  81 SW5       29.92S
HESPERIA         N/A     41  32  70 SW3       30.07R
PALMDALE       LGT RAIN  41  37  86 SW6       29.93R
LANCASTER      LGT RAIN  39  36  89 NW9       29.94S WCI  33
EDWARDS AFB    LGT RAIN  38  37  92 W13       29.92R WCI  31
DAGGETT        CLOUDY    44  31  60 NW9       29.92R
29 PALMS N     CLOUDY    45  26  47 CALM      29.94S
NEEDLES        CLEAR     51  31  46 W6        29.86F

$$

REGIONAL REPORTS

CITY           SKY/WX    TMP DP  RH WIND       PRES   REMARKS
SANTA BARBARA  LGT RAIN  47  43  86 E9        29.94F
SANDBERG       SNOW      32  30  92 S15       29.89F VSB<1/4 WCI  22
LAS VEGAS NV   PTCLDY    40  24  53 S5        29.88F
PHOENIX AZ     CLOUDY    54  33  45 E3        29.87S
TIJUANA        MOCLDY    48  43  81 CALM      30.03
ENSENADA NW      N/A     53  32  44 N2        30.00S

$$

OFFSHORE ISLANDS

CITY           SKY/WX    TMP DP  RH WIND       PRES   REMARKS
CATALINA ARPT  LGT RAIN  45  43  93 NW5       29.97S
SAN NICOLAS IS CLOUDY   N/A N/A N/A S13       29.95F

$$

MARINE AND OFFSHORE BUOY REPORTS

STATION/POSITION SKY/WX   TEMP    WIND        PRES    VSBY  SWELL
                          AIR SEA DIR/SP/G                  HT/PER/DIR
                          (F)     (DEG/KT/KT) (MB)    (MI)  (FT/S/D)
TANNER BANKS               56 59  240/ 14/ 17 1015.1F         5/290/15
S CLEMENTE BASIN           54 59  260/  8/ 10 1015.8F         3/300/15
SAN NICOLAS IS.               55                N/A           3/300/14
SO. S. ROSA ISLA           51 56  300/ 17/ 21 1013.4F         3/300/15
W. S. BARBARA CH           49 54  120/ 16/ 19 1013.1F         3/300/15
M. S. BARBARA CH                   90/ 16/ 19 1014.1F
S. MONICA BASIN            51 58   80/  2/  4 1014.5F         3/280/15
S PEDRO CHANNEL               57                N/A           2/280/15
CMP PENDLETON NS              58                N/A           2/230/15
OCEANSIDE OFFSHR              58                N/A           2/250/14
TORREY PINES OTR              59                N/A           2/270/14
POINT LOMA SOUTH              59                N/A           3/260/15

$$





USA.gov is the U.S. government's official web portal to all federal, state and local government web resources and services.